| time (UTC) | temp F | wind direction | speed knots | gust knots | rain 1hr in | rain 24hr in | rain mn in | humidity % | barometer mb |
| 20260504210001 | 86 | 284 | 24.3 | 31.3 | 0.00 | 0.00 | 0.00 | 13 | 997.4 |
| 20260504204638 | 86 | 261 | 23.5 | 33.0 | 0.00 | 0.00 | 0.00 | 12 | 997.7 |
| 20260504203059 | 85 | 262 | 20.0 | 34.8 | 0.00 | 0.00 | 0.00 | 14 | 997.8 |
| 20260504201559 | 85 | 254 | 24.3 | 34.8 | 0.00 | 0.00 | 0.00 | 13 | 998.2 |
| 20260504200057 | 85 | 265 | 24.3 | 34.8 | 0.00 | 0.00 | 0.00 | 13 | 998.3 |
| 20260504194555 | 85 | 262 | 23.5 | 36.5 | 0.00 | 0.00 | 0.00 | 15 | 998.6 |
| 20260504193049 | 84 | 277 | 25.2 | 31.3 | 0.00 | 0.00 | 0.00 | 16 | 999.0 |
| 20260504191544 | 83 | 270 | 16.5 | 29.5 | 0.00 | 0.00 | 0.00 | 17 | 999.2 |
| 20260504190047 | 82 | 242 | 19.1 | 30.4 | 0.00 | 0.00 | 0.00 | 21 | 999.4 |
| 20260504184539 | 82 | 273 | 20.0 | 32.2 | 0.00 | 0.00 | 0.00 | 24 | 999.7 |
| 20260504183034 | 81 | 265 | 22.6 | 28.7 | 0.00 | 0.00 | 0.00 | 26 | 999.9 |
| 20260504181551 | 80 | 267 | 20.0 | 25.2 | 0.00 | 0.00 | 0.00 | 26 | 1000.2 |
| 20260504180049 | 79 | 252 | 16.5 | 24.3 | 0.00 | 0.00 | 0.00 | 27 | 1000.5 |
| 20260504174551 | 79 | 279 | 20.0 | 26.1 | 0.00 | 0.00 | 0.00 | 25 | 1000.9 |
| 20260504173046 | 79 | 286 | 17.4 | 26.1 | 0.00 | 0.00 | 0.00 | 28 | 1000.9 |
| 20260504171543 | 79 | 299 | 20.9 | 29.5 | 0.00 | 0.00 | 0.00 | 27 | 1000.9 |
| 20260504081558 | 63 | 16 | 5.2 | 7.8 | 0.00 | 0.00 | 0.00 | 65 | 1001.4 |
| 20260504044527 | 69 | 142 | 13.0 | 17.4 | 0.00 | 0.00 | 0.00 | 49 | 1002.4 |
| 20260504043024 | 70 | 136 | 15.6 | 20.0 | 0.00 | 0.00 | 0.00 | 48 | 1002.4 |
| 20260504041528 | 70 | 139 | 14.8 | 20.9 | 0.00 | 0.00 | 0.00 | 47 | 1002.6 |
| 20260504040024 | 71 | 144 | 14.8 | 19.1 | 0.00 | 0.00 | 0.00 | 46 | 1002.7 |
| 20260504034521 | 71 | 139 | 14.8 | 18.2 | 0.00 | 0.00 | 0.00 | 45 | 1002.8 |
| 20260504033022 | 72 | 138 | 15.6 | 19.1 | 0.00 | 0.00 | 0.00 | 44 | 1002.8 |
| 20260504031532 | 72 | 135 | 15.6 | 19.1 | 0.00 | 0.00 | 0.00 | 43 | 1002.6 |
| 20260504030039 | 73 | 138 | 14.8 | 19.1 | 0.00 | 0.00 | 0.00 | 42 | 1002.4 |
| 20260504024531 | 73 | 133 | 15.6 | 20.0 | 0.00 | 0.00 | 0.00 | 41 | 1002.4 |
| 20260504023032 | 74 | 135 | 13.9 | 19.1 | 0.00 | 0.00 | 0.00 | 41 | 1002.4 |
| 20260504021528 | 74 | 128 | 13.0 | 18.2 | 0.00 | 0.00 | 0.00 | 41 | 1002.5 |
| 20260504020025 | 75 | 134 | 14.8 | 19.1 | 0.00 | 0.00 | 0.00 | 40 | 1002.5 |
| 20260504014522 | 75 | 129 | 11.3 | 14.8 | 0.00 | 0.00 | 0.00 | 38 | 1002.6 |
| 20260504013022 | 76 | 134 | 10.4 | 13.9 | 0.00 | 0.00 | 0.00 | 38 | 1002.6 |
| 20260504011519 | 76 | 121 | 9.6 | 13.9 | 0.00 | 0.00 | 0.00 | 37 | 1002.7 |
| 20260504010017 | 77 | 134 | 8.7 | 13.9 | 0.00 | 0.00 | 0.00 | 37 | 1002.8 |
| 20260504004521 | 77 | 137 | 11.3 | 15.6 | 0.00 | 0.00 | 0.00 | 36 | 1002.8 |
| 20260504003014 | 77 | 135 | 10.4 | 13.0 | 0.00 | 0.00 | 0.00 | 36 | 1003.0 |
| 20260504001516 | 77 | 139 | 7.8 | 11.3 | 0.00 | 0.00 | 0.00 | 36 | 1003.2 |
| 20260504000014 | 77 | 124 | 9.6 | 12.2 | 0.00 | 0.00 | 0.00 | 36 | 1003.2 |
| 20260503234525 | 77 | 147 | 3.5 | 7.8 | 0.00 | 0.00 | 0.00 | 35 | 1003.5 |
| 20260503233012 | 77 | 135 | 4.3 | 7.8 | 0.00 | 0.00 | 0.00 | 35 | 1003.6 |
| 20260503231507 | 77 | 215 | 2.6 | 5.2 | 0.00 | 0.00 | 0.00 | 35 | 1003.9 |
| 20260503230004 | 77 | 230 | 6.1 | 9.6 | 0.00 | 0.00 | 0.00 | 35 | 1004.1 |
| 20260503224500 | 77 | 30 | 2.6 | 4.3 | 0.00 | 0.00 | 0.00 | 36 | 1004.3 |
| 20260503223059 | 77 | 139 | 7.8 | 11.3 | 0.00 | 0.00 | 0.00 | 35 | 1004.7 |
| 20260503221503 | 76 | 186 | 4.3 | 12.2 | 0.00 | 0.00 | 0.00 | 36 | 1004.9 |
| 20260503220005 | 77 | 182 | 7.0 | 8.7 | 0.00 | 0.00 | 0.00 | 35 | 1005.1 |
| 20260503214558 | 76 | 155 | 3.5 | 9.6 | 0.00 | 0.00 | 0.00 | 36 | 1005.4 |
| 20260503213107 | 75 | 131 | 3.5 | 9.6 | 0.00 | 0.00 | 0.00 | 36 | 1005.9 |
| 20260503211547 | 75 | 140 | 7.0 | 10.4 | 0.00 | 0.00 | 0.00 | 37 | 1006.2 |